Flag for Japan Weather past 2 weeks in Himeji, Japan

Now
66 °F

Passing clouds.


Feels Like: 66 °F
Forecast: 47 / 62 °F
Wind: 7 mph from West

Location: Osaka International Airport

Current Time: Mar 31, 2015 at 8:53:18 PM

Latest Report: Mar 31, 2015 at 8:00 PM


Visibility: N/A

Pressure: 30.04 "Hg

Humidity: 68%

Dew point: 55 °F

Location of HimejiLocation

Historic Weather in Himeji — Graph

°F

Himeji temperature yesterday

Maximum temperature yesterday: 68 °F (at 1:00 PM)
Minimum temperature yesterday: 43 °F (at 5:00 AM)
Average temperature yesterday: 59 °F

Past Weeks' High & Low Weather Summary

 TemperatureHumidityPressure
High72 °F (Mar 31, 1:00 PM)100% (Mar 17, 5:00 AM)30.57 "Hg (Mar 17, 5:00 AM)
Low34 °F (Mar 26, 6:00 AM)20% (Mar 27, 3:00 PM)29.71 "Hg (Mar 19, 11:00 AM)
Average55 °F59%30.10 "Hg
* Reported Mar 16 7:00 PM — Mar 31 7:00 PM, Himeji, Weather by CustomWeather, © 2015

Note: Actual official high and low records may vary slightly from our data, if they occured in-between our weather recording intervals... More about our weather records

Advertising

Himeji weather history for previous 24 hours

 ConditionsComfort  
Time TempWeatherWind HumidityBarometerVisibility
7:00 PM
Tue, Mar 31
66 °FPartly cloudy.10 mph68%30.01 "HgN/A
6:00 PM66 °FPartly sunny.12 mph68%30.01 "HgN/A
5:00 PM70 °FPartly sunny.10 mph60%30.01 "HgN/A
4:00 PM72 °FScattered clouds.12 mph53%30.01 "HgN/A
3:00 PM72 °FPassing clouds.12 mph53%30.01 "HgN/A
2:00 PM72 °FPassing clouds.13 mph50%30.04 "HgN/A
1:00 PM72 °FPassing clouds.12 mph47%30.07 "HgN/A
12:00 PM70 °FPassing clouds.9 mph50%30.09 "HgN/A
11:00 AM68 °FPassing clouds.3 mph49%30.12 "HgN/A
10:00 AM64 °FPassing clouds.2 mph49%30.15 "HgN/A
9:00 AM61 °FPassing clouds.6 mph52%30.15 "HgN/A
8:00 AM55 °FPassing clouds.5 mph67%30.15 "HgN/A
7:00 AM48 °FPassing clouds.3 mph76%30.18 "HgN/A
6:00 AM46 °FPassing clouds.5 mph82%30.15 "HgN/A
5:00 AM46 °FPassing clouds.2 mph82%30.15 "HgN/A
8:00 PM
Mon, Mar 30
61 °FPassing clouds.2 mph48%30.09 "HgN/A
Weather by CustomWeather, © 2015

See weather overviewHow to use our weather pages